Location: Unspecified
(41.1637°N, 24.2901°E)
Time: 15:27:21
(UTC+01:00)

ISS - Pass Details

Date: 30 November 2020
Orbit: 418 x 421 km, 51.6° (Epoch: 29 November)

Event Time Altitude Azimuth Distance (km) Brightness Sun altitude
Rises 16:38:43 0° 295° (WNW) 2,363 0.8 -8.3°
Reaches altitude 10° 16:41:36 10° 322° (NW) 1,499 -0.7 -8.8°
Maximum altitude 16:43:28 14° 356° (N) 1,279 -1.5 -9.1°
Drops below altitude 10° 16:45:20 10° 30° (NNE) 1,500 -1.4 -9.4°
Enters shadow 16:45:37 - 34° (NE) 1,566 -1.3 -9.5°
